• In Kazakhstan
  • List of Countries
  • For 7 days
  • Water Temperature
  • Satellite Maps
  • Weather Map
  • News
  • Weather Widgets
  • user-avatar
    Login

    Hourly Weather Lincoln

    Today, 22 November, Wednesday

    Time Temperature Precipitation Wind Pressure Humidity
    00:00 -6°C° 0 mm 2 mps 738 mmHg 39%
    01:00 -4°C° 0 mm 1 mps 738 mmHg 39%
    02:00 -4°C° 0 mm 1 mps 737 mmHg 39%
    03:00 -4°C° 0 mm 1 mps 737 mmHg 40%
    04:00 -4°C° 0 mm 1 mps 737 mmHg 39%
    05:00 -4°C° 0 mm 1 mps 737 mmHg 39%
    06:00 -6°C° 0 mm 1 mps 737 mmHg 38%
    07:00 -6°C° 0 mm 2 mps 737 mmHg 36%
    08:00 -5°C° 0 mm 2 mps 737 mmHg 34%
    09:00 -6°C° 0 mm 3 mps 737 mmHg 33%
    10:00 -4°C° 0 mm 4 mps 736 mmHg 30%
    11:00 -1°C° 0 mm 4 mps 735 mmHg 27%
    12:00 +1°C° 0 mm 5 mps 735 mmHg 24%
    13:00 +2°C° 0 mm 5 mps 734 mmHg 25%
    14:00 +3°C° 0 mm 6 mps 733 mmHg 26%
    15:00 +4°C° 0 mm 6 mps 732 mmHg 28%
    16:00 +3°C° 0 mm 5 mps 731 mmHg 31%
    17:00 +3°C° 0 mm 5 mps 731 mmHg 35%
    18:00 +3°C° 0 mm 4 mps 730 mmHg 39%
    19:00 +3°C° 0 mm 4 mps 730 mmHg 41%
    20:00 +3°C° 0 mm 4 mps 729 mmHg 43%
    21:00 +2°C° 0 mm 5 mps 729 mmHg 44%
    22:00 +4°C° 0 mm 4 mps 729 mmHg 48%
    23:00 +4°C° 0 mm 4 mps 729 mmHg 52%

    Tomorrow, 23 November, Thursday

    Time Temperature Precipitation Wind Pressure Humidity
    00:00 +4°C° 0 mm 4 mps 728 mmHg 56%
    01:00 +4°C° 0 mm 4 mps 728 mmHg 64%
    02:00 +5°C° 0 mm 3 mps 728 mmHg 71%
    03:00 +5°C° 0 mm 3 mps 728 mmHg 79%
    04:00 +5°C° 0 mm 3 mps 728 mmHg 82%
    05:00 +5°C° 0 mm 3 mps 728 mmHg 85%
    06:00 +5°C° 0 mm 3 mps 728 mmHg 88%
    07:00 +7°C° 0 mm 2 mps 729 mmHg 85%
    08:00 +8°C° 0 mm 2 mps 729 mmHg 83%
    09:00 +8°C° 0 mm 2 mps 729 mmHg 80%
    10:00 +12°C° 0 mm 2 mps 729 mmHg 72%
    11:00 +14°C° 0 mm 2 mps 729 mmHg 64%
    12:00 +16°C° 0 mm 2 mps 728 mmHg 56%
    13:00 +17°C° 0 mm 2 mps 728 mmHg 54%
    14:00 +18°C° 0 mm 3 mps 727 mmHg 52%
    15:00 +19°C° 0 mm 3 mps 726 mmHg 50%
    16:00 +18°C° 0 mm 3 mps 726 mmHg 56%
    17:00 +16°C° 0 mm 3 mps 726 mmHg 62%
    18:00 +13°C° 0 mm 3 mps 725 mmHg 69%
    19:00 +13°C° 0 mm 3 mps 725 mmHg 70%
    20:00 +13°C° 0 mm 4 mps 725 mmHg 71%
    21:00 +12°C° 0 mm 4 mps 724 mmHg 73%
    22:00 +12°C° 0 mm 4 mps 724 mmHg 72%
    23:00 +12°C° 0 mm 4 mps 723 mmHg 72%

    Day after tomorrow, 24 November, Friday

    Time Temperature Precipitation Wind Pressure Humidity
    00:00 +12°C° 0 mm 5 mps 723 mmHg 72%
    01:00 +12°C° 0 mm 5 mps 722 mmHg 71%
    02:00 +12°C° 0 mm 5 mps 722 mmHg 71%
    03:00 +12°C° 0 mm 5 mps 721 mmHg 71%
    04:00 +10°C° 0 mm 5 mps 721 mmHg 69%
    05:00 +10°C° 0 mm 5 mps 720 mmHg 66%
    06:00 +10°C° 0 mm 5 mps 719 mmHg 64%
    07:00 +12°C° 0 mm 5 mps 720 mmHg 58%
    08:00 +13°C° 0 mm 5 mps 720 mmHg 53%
    09:00 +14°C° 0 mm 6 mps 720 mmHg 47%
    10:00 +16°C° 0 mm 6 mps 720 mmHg 42%
    11:00 +19°C° 0 mm 6 mps 720 mmHg 38%
    12:00 +21°C° 0 mm 7 mps 721 mmHg 33%
    13:00 +21°C° 0 mm 6 mps 721 mmHg 33%
    14:00 +21°C° 0 mm 5 mps 721 mmHg 33%
    15:00 +22°C° 0 mm 5 mps 721 mmHg 33%
    16:00 +20°C° 0 mm 4 mps 721 mmHg 37%
    17:00 +18°C° 0 mm 4 mps 722 mmHg 42%
    18:00 +16°C° 0 mm 3 mps 723 mmHg 47%
    19:00 +14°C° 0 mm 3 mps 723 mmHg 49%
    20:00 +13°C° 0 mm 3 mps 724 mmHg 51%
    21:00 +12°C° 0 mm 3 mps 724 mmHg 53%
    22:00 +11°C° 0 mm 3 mps 725 mmHg 55%
    23:00 +11°C° 0 mm 3 mps 725 mmHg 57%

    25 November, Saturday

    Time Temperature Precipitation Wind Pressure Humidity
    00:00 +10°C° 0 mm 2 mps 726 mmHg 58%
    01:00 +10°C° 0 mm 2 mps 726 mmHg 59%
    02:00 +9°C° 0 mm 2 mps 727 mmHg 59%
    03:00 +8°C° 0 mm 2 mps 727 mmHg 60%
    04:00 +8°C° 0 mm 2 mps 727 mmHg 60%
    05:00 +8°C° 0 mm 2 mps 728 mmHg 60%
    06:00 +7°C° 0 mm 2 mps 728 mmHg 60%
    07:00 +8°C° 0 mm 2 mps 729 mmHg 57%
    08:00 +8°C° 0 mm 2 mps 729 mmHg 54%
    09:00 +9°C° 0 mm 2 mps 730 mmHg 51%
    10:00 +10°C° 0 mm 2 mps 730 mmHg 44%
    11:00 +12°C° 0 mm 3 mps 730 mmHg 37%
    12:00 +14°C° 0 mm 3 mps 731 mmHg 30%
    13:00 +14°C° 0 mm 3 mps 731 mmHg 29%
    14:00 +14°C° 0 mm 3 mps 731 mmHg 28%
    15:00 +16°C° 0 mm 3 mps 730 mmHg 27%
    16:00 +13°C° 0 mm 3 mps 731 mmHg 31%
    17:00 +12°C° 0 mm 2 mps 731 mmHg 35%
    18:00 +11°C° 0 mm 1 mps 731 mmHg 39%
    19:00 +10°C° 0 mm 1 mps 731 mmHg 40%
    20:00 +10°C° 0 mm 1 mps 731 mmHg 41%
    21:00 +8°C° 0 mm 0 mps 732 mmHg 42%
    22:00 +9°C° 0 mm 1 mps 732 mmHg 43%
    23:00 +9°C° 0 mm 1 mps 732 mmHg 44%

    26 November, Sunday

    Time Temperature Precipitation Wind Pressure Humidity
    00:00 +7°C° 0 mm 2 mps 732 mmHg 45%
    01:00 +7°C° 0 mm 2 mps 731 mmHg 46%
    02:00 +7°C° 0 mm 2 mps 731 mmHg 47%
    03:00 +7°C° 0 mm 2 mps 731 mmHg 49%
    04:00 +7°C° 0 mm 3 mps 731 mmHg 51%
    05:00 +7°C° 0 mm 3 mps 731 mmHg 54%
    06:00 +7°C° 0 mm 3 mps 731 mmHg 56%
    07:00 +7°C° 0 mm 4 mps 730 mmHg 55%
    08:00 +8°C° 0 mm 5 mps 730 mmHg 54%
    09:00 +8°C° 0 mm 5 mps 730 mmHg 53%
    10:00 +11°C° 0 mm 6 mps 729 mmHg 49%
    11:00 +14°C° 0 mm 7 mps 729 mmHg 45%
    12:00 +16°C° 0 mm 7 mps 728 mmHg 42%
    13:00 +17°C° 0 mm 7 mps 727 mmHg 42%
    14:00 +17°C° 0 mm 7 mps 726 mmHg 42%
    15:00 +18°C° 0 mm 7 mps 725 mmHg 43%
    16:00 +17°C° 0 mm 6 mps 725 mmHg 47%
    17:00 +16°C° 0 mm 6 mps 725 mmHg 51%
    18:00 +15°C° 0 mm 5 mps 724 mmHg 56%
    19:00 +14°C° 0 mm 6 mps 724 mmHg 57%
    20:00 +14°C° 0 mm 6 mps 724 mmHg 59%
    21:00 +14°C° 0 mm 7 mps 723 mmHg 61%
    22:00 +14°C° 0 mm 6 mps 723 mmHg 63%
    23:00 +14°C° 0 mm 6 mps 722 mmHg 65%

    27 November, Monday

    Time Temperature Precipitation Wind Pressure Humidity
    00:00 +14°C° 0 mm 6 mps 722 mmHg 67%
    01:00 +13°C° 0 mm 6 mps 721 mmHg 68%
    02:00 +13°C° 0 mm 6 mps 721 mmHg 69%
    03:00 +13°C° 0 mm 6 mps 720 mmHg 71%
    04:00 +11°C° 0 mm 6 mps 720 mmHg 72%
    05:00 +11°C° 0 mm 6 mps 719 mmHg 73%
    06:00 +11°C° 0 mm 6 mps 719 mmHg 74%
    07:00 +11°C° 0 mm 6 mps 719 mmHg 73%
    08:00 +11°C° 0 mm 6 mps 718 mmHg 71%
    09:00 +13°C° 0 mm 6 mps 718 mmHg 70%
    10:00 +15°C° 0 mm 7 mps 717 mmHg 64%
    11:00 +16°C° 0 mm 7 mps 716 mmHg 57%
    12:00 +18°C° 0 mm 7 mps 716 mmHg 51%
    13:00 +20°C° 0 mm 7 mps 715 mmHg 47%
    14:00 +21°C° 0 mm 6 mps 714 mmHg 44%
    15:00 +21°C° 0 mm 6 mps 714 mmHg 40%
    16:00 +20°C° 0 mm 6 mps 715 mmHg 40%
    17:00 +19°C° 0 mm 6 mps 716 mmHg 40%
    18:00 +17°C° 0 mm 6 mps 716 mmHg 40%
    19:00 +16°C° 0 mm 6 mps 718 mmHg 42%
    20:00 +14°C° 0 mm 6 mps 719 mmHg 44%
    21:00 +13°C° 0 mm 6 mps 721 mmHg 47%
    22:00 +11°C° 0 mm 6 mps 722 mmHg 46%
    23:00 +10°C° 0 mm 5 mps 723 mmHg 46%
    Show more